Time,TemperatureF,DewpointF,PressureIn,WindDirection,WindDirectionDegrees,WindSpeedMPH,WindSpeedGustMPH,Humidity,HourlyPrecipIn,Conditions,Clouds,dailyrainin,SoftwareType,DateUTC
2013-03-23 00:02:00,39.0,25.0,29.91,ENE,68,2.0,7.0,58,0.00,,,0.00,,2013-03-23 05:02:00,
2013-03-23 00:12:00,39.0,25.0,29.91,ENE,68,2.0,7.0,58,0.00,,,0.00,,2013-03-23 05:12:00,
2013-03-23 00:22:00,39.0,25.0,29.92,ENE,71,2.0,7.0,58,0.00,,,0.00,,2013-03-23 05:22:00,
2013-03-23 00:32:00,39.0,25.0,29.91,ENE,64,2.0,7.0,58,0.00,,,0.00,,2013-03-23 05:32:00,
2013-03-23 00:42:00,39.0,25.0,29.91,ENE,64,2.0,7.0,58,0.00,,,0.00,,2013-03-23 05:42:00,
2013-03-23 00:52:00,39.0,25.0,29.91,ENE,66,2.0,7.0,57,0.00,,,0.00,,2013-03-23 05:52:00,
2013-03-23 01:02:00,39.0,25.0,29.91,ENE,66,5.0,8.0,56,0.00,,,0.00,,2013-03-23 06:02:00,
2013-03-23 01:12:00,39.0,25.0,29.91,ENE,66,5.0,8.0,56,0.00,,,0.00,,2013-03-23 06:12:00,
2013-03-23 01:22:00,39.0,25.0,29.91,East,83,2.0,8.0,58,0.00,,,0.00,,2013-03-23 06:22:00,
2013-03-23 01:32:00,39.0,25.0,29.90,East,88,7.0,8.0,58,0.00,,,0.00,,2013-03-23 06:32:00,
2013-03-23 01:42:00,39.0,25.0,29.90,East,88,7.0,8.0,58,0.00,,,0.00,,2013-03-23 06:42:00,
2013-03-23 01:52:00,39.0,26.0,29.88,East,88,2.0,8.0,59,0.00,,,0.00,,2013-03-23 06:52:00,
2013-03-23 02:02:00,39.0,27.0,29.89,East,89,5.0,8.0,62,0.00,,,0.00,,2013-03-23 07:02:00,
2013-03-23 02:12:00,39.0,27.0,29.89,East,89,5.0,8.0,62,0.00,,,0.00,,2013-03-23 07:12:00,
2013-03-23 02:22:00,39.0,26.0,29.87,East,96,5.0,8.0,59,0.00,,,0.00,,2013-03-23 07:22:00,
2013-03-23 02:32:00,39.0,26.0,29.88,ENE,78,2.0,8.0,60,0.00,,,0.00,,2013-03-23 07:32:00,
2013-03-23 02:42:00,39.0,26.0,29.88,ENE,78,2.0,8.0,60,0.00,,,0.00,,2013-03-23 07:42:00,
2013-03-23 02:52:00,39.0,26.0,29.88,ENE,69,3.0,8.0,60,0.00,,,0.00,,2013-03-23 07:52:00,
2013-03-23 03:02:00,39.0,26.0,29.87,NE,44,2.0,7.0,60,0.00,,,0.00,,2013-03-23 08:02:00,
2013-03-23 03:12:00,39.0,26.0,29.87,NE,44,2.0,7.0,60,0.00,,,0.00,,2013-03-23 08:12:00,
2013-03-23 03:22:00,39.0,27.0,29.89,ENE,71,4.0,7.0,63,0.00,,,0.00,,2013-03-23 08:22:00,
2013-03-23 03:32:00,39.0,27.0,29.87,East,80,4.0,7.0,62,0.00,,,0.00,,2013-03-23 08:32:00,
2013-03-23 03:42:00,39.0,27.0,29.87,East,80,4.0,7.0,62,0.00,,,0.00,,2013-03-23 08:42:00,
2013-03-23 03:52:00,39.0,27.0,29.86,ENE,71,5.0,7.0,61,0.00,,,0.00,,2013-03-23 08:52:00,
2013-03-23 04:02:00,39.0,27.0,29.85,ENE,62,2.0,7.0,61,0.00,,,0.00,,2013-03-23 09:02:00,
2013-03-23 04:12:00,39.0,27.0,29.85,ENE,62,2.0,7.0,61,0.00,,,0.00,,2013-03-23 09:12:00,
2013-03-23 04:22:00,39.0,26.0,29.85,ENE,65,3.0,7.0,60,0.00,,,0.00,,2013-03-23 09:22:00,
2013-03-23 04:33:00,39.0,27.0,29.86,ENE,64,5.0,7.0,63,0.00,,,0.00,,2013-03-23 09:33:00,
2013-03-23 04:42:00,39.0,27.0,29.86,ENE,64,5.0,7.0,63,0.00,,,0.00,,2013-03-23 09:42:00,
2013-03-23 04:53:00,39.0,27.0,29.85,ENE,66,5.0,7.0,61,0.00,,,0.00,,2013-03-23 09:53:00,
2013-03-23 05:03:00,39.0,26.0,29.85,ENE,59,4.0,7.0,60,0.00,,,0.00,,2013-03-23 10:03:00,
2013-03-23 05:12:00,39.0,26.0,29.85,ENE,59,4.0,7.0,60,0.00,,,0.00,,2013-03-23 10:12:00,
2013-03-23 05:23:00,39.0,27.0,29.86,NE,51,3.0,7.0,61,0.00,,,0.00,,2013-03-23 10:23:00,
2013-03-23 05:33:00,39.0,26.0,29.86,NE,44,6.0,8.0,59,0.00,,,0.00,,2013-03-23 10:33:00,
2013-03-23 05:42:00,39.0,26.0,29.86,NE,44,6.0,8.0,59,0.00,,,0.00,,2013-03-23 10:42:00,
2013-03-23 05:52:00,39.0,27.0,29.87,NE,45,1.0,8.0,62,0.00,,,0.00,,2013-03-23 10:52:00,
2013-03-23 06:03:00,39.0,27.0,29.87,NE,45,1.0,8.0,62,0.00,,,0.00,,2013-03-23 11:03:00,
2013-03-23 06:12:00,39.0,27.0,29.87,NE,45,1.0,8.0,62,0.00,,,0.00,,2013-03-23 11:12:00,
2013-03-23 06:22:00,39.0,27.0,29.87,ENE,58,6.0,10.0,62,0.00,,,0.00,,2013-03-23 11:22:00,
2013-03-23 06:32:00,39.0,27.0,29.87,NE,48,2.0,7.0,63,0.00,,,0.00,,2013-03-23 11:32:00,
2013-03-23 06:42:00,39.0,28.0,29.88,ENE,58,6.0,7.0,64,0.00,,,0.00,,2013-03-23 11:42:00,
2013-03-23 06:52:00,39.0,28.0,29.88,ENE,58,6.0,7.0,64,0.00,,,0.00,,2013-03-23 11:52:00,
2013-03-23 07:02:00,39.0,27.0,29.88,ENE,68,3.0,8.0,62,0.00,,,0.00,,2013-03-23 12:02:00,
2013-03-23 07:12:00,39.0,27.0,29.88,ENE,68,3.0,8.0,62,0.00,,,0.00,,2013-03-23 12:12:00,
2013-03-23 07:22:00,39.0,28.0,29.89,ENE,72,3.0,8.0,64,0.00,,,0.00,,2013-03-23 12:22:00,
2013-03-23 07:33:00,39.0,28.0,29.90,ENE,68,4.0,7.0,64,0.00,,,0.00,,2013-03-23 12:33:00,
2013-03-23 07:42:00,39.0,28.0,29.90,ENE,68,4.0,7.0,64,0.00,,,0.00,,2013-03-23 12:42:00,
2013-03-23 07:52:00,39.0,28.0,29.90,NE,49,6.0,7.0,64,0.00,,,0.00,,2013-03-23 12:52:00,
2013-03-23 08:03:00,39.0,27.0,29.90,ENE,66,3.0,7.0,62,0.00,,,0.00,,2013-03-23 13:03:00,
2013-03-23 08:12:00,39.0,27.0,29.90,ENE,66,3.0,7.0,62,0.00,,,0.00,,2013-03-23 13:12:00,
2013-03-23 08:22:00,39.0,27.0,29.90,ENE,66,6.0,7.0,61,0.00,,,0.00,,2013-03-23 13:22:00,
2013-03-23 08:32:00,39.0,27.0,29.90,NE,56,5.0,12.0,62,0.00,,,0.00,,2013-03-23 13:32:00,
2013-03-23 08:42:00,39.0,27.0,29.90,NE,56,5.0,12.0,62,0.00,,,0.00,,2013-03-23 13:42:00,
2013-03-23 08:52:00,40.0,28.0,29.91,ENE,71,8.0,12.0,61,0.00,,,0.00,,2013-03-23 13:52:00,
2013-03-23 09:03:00,40.0,27.0,29.90,ENE,68,10.0,12.0,59,0.00,,,0.00,,2013-03-23 14:03:00,
2013-03-23 09:12:00,40.0,27.0,29.90,ENE,68,10.0,12.0,59,0.00,,,0.00,,2013-03-23 14:12:00,
2013-03-23 09:22:00,41.0,28.0,29.90,ENE,64,10.0,12.0,60,0.00,,,0.00,,2013-03-23 14:22:00,
2013-03-23 09:32:00,41.0,29.0,29.90,ENE,58,9.0,13.0,61,0.00,,,0.00,,2013-03-23 14:32:00,
2013-03-23 09:42:00,41.0,29.0,29.90,ENE,58,9.0,13.0,61,0.00,,,0.00,,2013-03-23 14:42:00,
2013-03-23 09:52:00,42.0,29.0,29.90,East,86,10.0,13.0,60,0.00,,,0.00,,2013-03-23 14:52:00,
2013-03-23 10:03:00,43.0,30.0,29.90,East,90,6.0,13.0,60,0.00,,,0.00,,2013-03-23 15:03:00,
2013-03-23 10:12:00,43.0,30.0,29.90,East,90,6.0,13.0,60,0.00,,,0.00,,2013-03-23 15:12:00,
2013-03-23 10:22:00,44.0,28.0,29.89,East,88,11.0,13.0,54,0.00,,,0.00,,2013-03-23 15:22:00,
2013-03-23 10:33:00,45.0,30.0,29.89,East,80,10.0,16.0,55,0.00,,,0.00,,2013-03-23 15:33:00,
2013-03-23 10:43:00,45.0,30.0,29.89,East,80,10.0,16.0,55,0.00,,,0.00,,2013-03-23 15:43:00,
2013-03-23 10:52:00,46.0,30.0,29.88,ESE,106,10.0,16.0,53,0.00,,,0.00,,2013-03-23 15:52:00,
2013-03-23 11:03:00,46.0,29.0,29.88,East,99,9.0,20.0,52,0.00,,,0.00,,2013-03-23 16:03:00,
2013-03-23 11:12:00,46.0,29.0,29.88,East,99,9.0,20.0,52,0.00,,,0.00,,2013-03-23 16:12:00,
2013-03-23 11:23:00,47.0,31.0,29.89,ESE,117,12.0,20.0,53,0.00,,,0.00,,2013-03-23 16:23:00,
2013-03-23 11:32:00,48.0,31.0,29.88,East,96,10.0,17.0,52,0.00,,,0.00,,2013-03-23 16:32:00,
2013-03-23 11:43:00,48.0,31.0,29.88,East,96,10.0,17.0,52,0.00,,,0.00,,2013-03-23 16:43:00,
2013-03-23 11:53:00,49.0,32.0,29.88,East,99,10.0,17.0,52,0.00,,,0.00,,2013-03-23 16:53:00,
2013-03-23 12:02:00,49.0,32.0,29.87,ENE,76,12.0,17.0,51,0.00,,,0.00,,2013-03-23 17:02:00,
2013-03-23 12:12:00,49.0,32.0,29.87,ENE,76,12.0,17.0,51,0.00,,,0.00,,2013-03-23 17:12:00,
2013-03-23 12:22:00,49.0,32.0,29.87,ENE,76,12.0,17.0,51,0.00,,,0.00,,2013-03-23 17:22:00,
2013-03-23 12:32:00,49.0,34.0,29.87,East,96,8.0,17.0,55,0.00,,,0.00,,2013-03-23 17:32:00,
2013-03-23 12:42:00,49.0,34.0,29.87,East,96,8.0,17.0,55,0.00,,,0.00,,2013-03-23 17:42:00,
2013-03-23 12:53:00,50.0,33.0,29.87,East,88,10.0,17.0,52,0.00,,,0.00,,2013-03-23 17:53:00,
2013-03-23 13:03:00,51.0,33.0,29.87,ESE,113,8.0,18.0,50,0.00,,,0.00,,2013-03-23 18:03:00,
2013-03-23 13:12:00,51.0,33.0,29.87,ESE,113,8.0,18.0,50,0.00,,,0.00,,2013-03-23 18:12:00,
2013-03-23 13:22:00,52.0,33.0,29.86,East,83,7.0,18.0,49,0.00,,,0.00,,2013-03-23 18:22:00,
2013-03-23 13:32:00,52.0,36.0,29.85,East,79,6.0,14.0,54,0.00,,,0.00,,2013-03-23 18:32:00,
2013-03-23 13:42:00,52.0,36.0,29.85,East,79,6.0,14.0,54,0.00,,,0.00,,2013-03-23 18:42:00,
2013-03-23 13:52:00,52.0,35.0,29.84,East,99,6.0,14.0,52,0.00,,,0.00,,2013-03-23 18:52:00,
2013-03-23 14:03:00,52.0,35.0,29.84,East,86,8.0,16.0,52,0.00,,,0.00,,2013-03-23 19:03:00,
2013-03-23 14:12:00,52.0,35.0,29.84,East,86,8.0,16.0,52,0.00,,,0.00,,2013-03-23 19:12:00,
2013-03-23 14:22:00,52.0,35.0,29.84,East,86,8.0,16.0,52,0.00,,,0.00,,2013-03-23 19:22:00,
2013-03-23 14:32:00,53.0,36.0,29.82,SW,230,7.0,15.0,52,0.00,,,0.00,,2013-03-23 19:32:00,
2013-03-23 14:42:00,53.0,36.0,29.82,SW,230,7.0,15.0,52,0.00,,,0.00,,2013-03-23 19:42:00,
2013-03-23 14:53:00,53.0,34.0,29.80,SW,233,8.0,15.0,49,0.00,,,0.00,,2013-03-23 19:53:00,
2013-03-23 15:02:00,53.0,35.0,29.80,SW,233,10.0,15.0,50,0.00,,,0.00,,2013-03-23 20:02:00,
2013-03-23 15:12:00,53.0,35.0,29.80,SW,233,10.0,15.0,50,0.00,,,0.00,,2013-03-23 20:12:00,
2013-03-23 15:22:00,53.0,36.0,29.80,NE,55,8.0,15.0,53,0.00,,,0.00,,2013-03-23 20:22:00,
2013-03-23 15:32:00,53.0,36.0,29.79,East,90,8.0,14.0,53,0.00,,,0.00,,2013-03-23 20:32:00,
2013-03-23 15:42:00,53.0,36.0,29.79,East,90,8.0,14.0,53,0.00,,,0.00,,2013-03-23 20:42:00,
2013-03-23 15:52:00,53.0,36.0,29.78,East,90,10.0,14.0,52,0.00,,,0.00,,2013-03-23 20:52:00,
2013-03-23 16:02:00,53.0,37.0,29.77,East,83,12.0,17.0,55,0.00,,,0.00,,2013-03-23 21:02:00,
2013-03-23 16:12:00,53.0,37.0,29.77,East,83,12.0,17.0,55,0.00,,,0.00,,2013-03-23 21:12:00,
2013-03-23 16:22:00,53.0,37.0,29.75,East,90,10.0,17.0,54,0.00,,,0.00,,2013-03-23 21:22:00,
2013-03-23 16:33:00,53.0,37.0,29.76,East,89,11.0,19.0,54,0.00,,,0.00,,2013-03-23 21:33:00,
2013-03-23 16:43:00,53.0,37.0,29.76,East,89,11.0,19.0,54,0.00,,,0.00,,2013-03-23 21:43:00,
2013-03-23 16:53:00,53.0,36.0,29.76,East,80,11.0,19.0,53,0.00,,,0.00,,2013-03-23 21:53:00,
2013-03-23 17:03:00,53.0,36.0,29.75,East,95,11.0,17.0,52,0.00,,,0.00,,2013-03-23 22:03:00,
2013-03-23 17:12:00,53.0,36.0,29.75,East,95,11.0,17.0,52,0.00,,,0.00,,2013-03-23 22:12:00,
2013-03-23 17:23:00,53.0,37.0,29.74,ENE,78,11.0,17.0,55,0.00,,,0.00,,2013-03-23 22:23:00,
2013-03-23 17:33:00,53.0,37.0,29.74,ENE,78,11.0,17.0,55,0.00,,,0.00,,2013-03-23 22:33:00,
2013-03-23 17:42:00,53.0,37.0,29.74,ENE,78,11.0,17.0,55,0.00,,,0.00,,2013-03-23 22:42:00,
2013-03-23 17:52:00,52.0,38.0,29.73,East,86,6.0,18.0,59,0.00,,,0.00,,2013-03-23 22:52:00,
2013-03-23 18:02:00,52.0,37.0,29.72,ESE,103,8.0,18.0,56,0.00,,,0.00,,2013-03-23 23:02:00,
2013-03-23 18:12:00,52.0,37.0,29.72,ESE,103,8.0,18.0,56,0.00,,,0.00,,2013-03-23 23:12:00,
2013-03-23 18:22:00,52.0,39.0,29.72,ESE,104,11.0,18.0,61,0.00,,,0.00,,2013-03-23 23:22:00,
2013-03-23 18:33:00,49.0,41.0,29.72,East,95,6.0,17.0,74,0.00,,,0.00,,2013-03-23 23:33:00,
2013-03-23 18:42:00,49.0,41.0,29.72,East,95,6.0,17.0,74,0.00,,,0.00,,2013-03-23 23:42:00,
2013-03-23 18:52:00,49.0,41.0,29.71,ENE,59,11.0,17.0,75,0.00,,,0.00,,2013-03-23 23:52:00,
2013-03-23 19:02:00,48.0,41.0,29.72,East,83,6.0,16.0,76,0.03,,,0.03,,2013-03-24 00:02:00,
2013-03-23 19:12:00,48.0,41.0,29.72,East,83,6.0,16.0,76,0.03,,,0.03,,2013-03-24 00:12:00,
2013-03-23 19:22:00,48.0,43.0,29.72,ESE,112,9.0,16.0,82,0.03,,,0.03,,2013-03-24 00:22:00,
2013-03-23 19:32:00,47.0,42.0,29.70,ESE,102,1.0,12.0,83,0.05,,,0.05,,2013-03-24 00:32:00,
2013-03-23 19:42:00,47.0,42.0,29.70,ESE,102,1.0,12.0,83,0.05,,,0.05,,2013-03-24 00:42:00,
2013-03-23 19:52:00,46.0,43.0,29.72,East,89,6.0,12.0,89,0.05,,,0.05,,2013-03-24 00:52:00,
2013-03-23 20:02:00,46.0,42.0,29.70,East,83,6.0,13.0,87,0.04,,,0.07,,2013-03-24 01:02:00,
2013-03-23 20:12:00,46.0,42.0,29.70,East,83,6.0,13.0,87,0.04,,,0.07,,2013-03-24 01:12:00,
2013-03-23 20:22:00,46.0,42.0,29.69,East,82,7.0,13.0,87,0.04,,,0.07,,2013-03-24 01:22:00,
2013-03-23 20:32:00,46.0,43.0,29.68,East,86,2.0,11.0,88,0.02,,,0.07,,2013-03-24 01:32:00,
2013-03-23 20:42:00,46.0,43.0,29.68,East,86,2.0,11.0,88,0.02,,,0.07,,2013-03-24 01:42:00,
2013-03-23 20:52:00,46.0,43.0,29.68,East,86,2.0,11.0,88,0.02,,,0.07,,2013-03-24 01:52:00,
2013-03-23 21:03:00,46.0,43.0,29.69,ESE,107,3.0,10.0,90,0.02,,,0.09,,2013-03-24 02:03:00,
2013-03-23 21:12:00,46.0,43.0,29.69,ESE,107,3.0,10.0,90,0.02,,,0.09,,2013-03-24 02:12:00,
2013-03-23 21:22:00,46.0,44.0,29.68,ENE,78,6.0,10.0,93,0.02,,,0.09,,2013-03-24 02:22:00,
2013-03-23 21:32:00,46.0,43.0,29.65,ENE,62,2.0,10.0,89,0.03,,,0.10,,2013-03-24 02:32:00,
2013-03-23 21:42:00,46.0,43.0,29.65,ENE,62,2.0,10.0,89,0.03,,,0.10,,2013-03-24 02:42:00,
2013-03-23 21:52:00,46.0,43.0,29.65,East,88,6.0,10.0,90,0.03,,,0.10,,2013-03-24 02:52:00,
2013-03-23 22:02:00,46.0,43.0,29.66,ENE,66,8.0,12.0,90,0.01,,,0.10,,2013-03-24 03:02:00,
2013-03-23 22:12:00,46.0,43.0,29.66,ENE,66,8.0,12.0,90,0.01,,,0.10,,2013-03-24 03:12:00,
2013-03-23 22:22:00,46.0,44.0,29.69,ENE,73,5.0,12.0,91,0.01,,,0.10,,2013-03-24 03:22:00,
2013-03-23 22:33:00,46.0,44.0,29.68,ESE,113,5.0,9.0,91,0.01,,,0.11,,2013-03-24 03:33:00,
2013-03-23 22:42:00,46.0,44.0,29.68,ESE,113,5.0,9.0,91,0.01,,,0.11,,2013-03-24 03:42:00,
2013-03-23 22:52:00,46.0,44.0,29.68,ESE,103,2.0,9.0,91,0.01,,,0.11,,2013-03-24 03:52:00,
2013-03-23 23:02:00,46.0,44.0,29.68,ESE,107,3.0,7.0,92,0.03,,,0.13,,2013-03-24 04:02:00,
2013-03-23 23:12:00,46.0,44.0,29.68,ESE,107,3.0,7.0,92,0.03,,,0.13,,2013-03-24 04:12:00,
2013-03-23 23:22:00,46.0,45.0,29.68,East,83,3.0,7.0,97,0.03,,,0.13,,2013-03-24 04:22:00,
2013-03-23 23:32:00,46.0,45.0,29.67,ENE,75,3.0,7.0,97,0.03,,,0.14,,2013-03-24 04:32:00,
2013-03-23 23:42:00,46.0,45.0,29.67,ENE,75,3.0,7.0,97,0.03,,,0.14,,2013-03-24 04:42:00,
2013-03-23 23:52:00,45.0,44.0,29.66,East,90,6.0,7.0,98,0.03,,,0.14,,2013-03-24 04:52:00,